WetterOnline ( https://www.wetteronline.de )

Wetter aktuell Jöhstadt

Aktuelles Wetter: Marienberg (640m)

6-stündlich | Neueste Meldungen
Ortszeit Temperatur Wetter
Mo, 27.06. 14:00 30.1° C wolkenlos
Mo, 27.06. 8:00 22.6° C wolkig
Mo, 27.06. 2:00 19.8° C wolkenlos
So, 26.06. 20:00 24.6° C leicht bewölkt
So, 26.06. 14:00 23.4° C leichter Regen
So, 26.06. 8:00 20.3° C wolkig
So, 26.06. 2:00 14.7° C fast wolkenlos
Sa, 25.06. 20:00 20.9° C bedeckt
Ortszeit Temperatur Wetter
Mo, 27.06. 18:30 24.8° C wolkig
Mo, 27.06. 18:20 24.8° C wolkig
Mo, 27.06. 18:10 24.1° C bedeckt
Mo, 27.06. 18:00 23.6° C wolkig
Mo, 27.06. 17:50 23.6° C wolkig
Mo, 27.06. 17:40 23.5° C bedeckt
Mo, 27.06. 17:30 22.7° C wolkig
Mo, 27.06. 17:00 24.9° C bedeckt
Mo, 27.06. 16:30 26.2° C wolkig
Mo, 27.06. 16:00 27.5° C leichter Regen
Mo, 27.06. 15:30 29.0° C wolkig
Ortszeit Relative Feuchte Sichtweite
Mo, 27.06. 14:00 44% 50 km
Mo, 27.06. 8:00 56% 60 km
Mo, 27.06. 2:00 71% 45 km
So, 26.06. 20:00 51% 50 km
So, 26.06. 14:00 49% 45 km
So, 26.06. 8:00 67% >70 km
So, 26.06. 2:00 93% 20 km
Sa, 25.06. 20:00 66% 40 km
Ortszeit Relative Feuchte Sichtweite
Mo, 27.06. 18:30 57% 55 km
Mo, 27.06. 18:20 57% -
Mo, 27.06. 18:10 62% -
Mo, 27.06. 18:00 62% 50 km
Mo, 27.06. 17:50 62% -
Mo, 27.06. 17:40 62% -
Mo, 27.06. 17:30 69% 60 km
Mo, 27.06. 17:00 64% >70 km
Mo, 27.06. 16:30 67% 45 km
Mo, 27.06. 16:00 51% 15 km
Mo, 27.06. 15:30 42% 60 km
Ortszeit Niederschlagsmenge Niederschlagsart
Mo, 27.06. 14:00 0.0 l/m2 in 6 Std. -
Mo, 27.06. 8:00 0.0 l/m2 in 12 Std. -
Mo, 27.06. 2:00 0.0 l/m2 in 6 Std. -
So, 26.06. 20:00 0.1 l/m2 in 12 Std. Regen
So, 26.06. 14:00 0.1 l/m2 in 6 Std. Regen
So, 26.06. 8:00 0.0 l/m2 in 12 Std. -
So, 26.06. 2:00 0.0 l/m2 in 6 Std. -
Sa, 25.06. 20:00 0.3 l/m2 in 12 Std. -
Ortszeit Niederschlagsmenge Niederschlagsart
Mo, 27.06. 18:30 0.0 l/m2 in 1 Std. -
Mo, 27.06. 18:20 keine Meldung -
Mo, 27.06. 18:10 keine Meldung -
Mo, 27.06. 18:00 0.0 l/m2 in 1 Std. -
Mo, 27.06. 17:50 keine Meldung -
Mo, 27.06. 17:40 keine Meldung -
Mo, 27.06. 17:30 0.0 l/m2 in 1 Std. -
Mo, 27.06. 17:00 1.1 l/m2 in 1 Std. Regen
Mo, 27.06. 16:30 1.1 l/m2 in 1 Std. Schneeregen
Mo, 27.06. 16:00 0.1 l/m2 in 1 Std. Regen
Mo, 27.06. 15:30 0.0 l/m2 in 1 Std. -
Ortszeit Stärke Spitze Richtung
km/h Bft. km/h Grad Sektor
Mo, 27.06. 14:00 11 2 40 150° SO
Mo, 27.06. 8:00 17 3 31 140° SO
Mo, 27.06. 2:00 9 2 22 130° SO
So, 26.06. 20:00 7 2 20 150° SO
So, 26.06. 14:00 7 2 18 150° SO
So, 26.06. 8:00 7 2 11 240° SW
So, 26.06. 2:00 4 1 11 220° SW
Sa, 25.06. 20:00 2 1 19 230° SW
Ortszeit Stärke Spitze Richtung
km/h Bft. km/h Grad Sektor
Mo, 27.06. 18:30 4 1 18 170° S
Mo, 27.06. 18:20 4 1 - 170° S
Mo, 27.06. 18:10 9 2 - 80° O
Mo, 27.06. 18:00 13 3 30 80° O
Mo, 27.06. 17:50 13 3 - 80° O
Mo, 27.06. 17:40 15 3 - 100° O
Mo, 27.06. 17:30 15 3 30 110° O
Mo, 27.06. 17:00 9 2 30 40° NO
Mo, 27.06. 16:30 11 2 29 10° N
Mo, 27.06. 16:00 9 2 28 240° SW
Mo, 27.06. 15:30 7 2 28 180° S
Ortszeit Untergrenze Bedeckung Gattung
total tief tief mittel hoch
Mo, 27.06. 14:00 - 0/8 0/8 - - -
Mo, 27.06. 8:00 6300 m 8/8 3/8 - - -
Mo, 27.06. 2:00 - 0/8 0/8 - - -
So, 26.06. 20:00 3900 m 2/8 2/8 - - -
So, 26.06. 14:00 2100 m 7/8 7/8 - - -
So, 26.06. 8:00 7200 m 8/8 0/8 - - -
So, 26.06. 2:00 10500 m 2/8 0/8 - - -
Sa, 25.06. 20:00 3600 m 8/8 8/8 - - -
Ortszeit Bedeckungsgrad in Achtel und Wolkenuntergrenze
Mo, 27.06. 18:30 2(3000m) 8(9000m)
Mo, 27.06. 18:20 2(3000m) 2(6900m) 8(9000m)
Mo, 27.06. 18:10 8
Mo, 27.06. 18:00 2(2100m) 4(9000m) 8(9000m)
Mo, 27.06. 17:50 2(2100m) 4(9000m) 8(9000m)
Mo, 27.06. 17:40 8
Mo, 27.06. 17:30 3(2100m) 8(4200m) 8(9000m)
Mo, 27.06. 17:00 8(2100m)
Mo, 27.06. 16:30 3(1500m) 4(2100m) 5(3900m)
Mo, 27.06. 16:00 6(1800m) 7(2100m) 8(3900m)
Mo, 27.06. 15:30 3(1800m) 5(2700m) 6(3900m)
Ortszeit Luftdruck NN (hPa) Tendenz (hPa in 3 Std.)
Mo, 27.06. 14:00 1010 - 0,3
Mo, 27.06. 8:00 1012 - 0,1
Mo, 27.06. 2:00 1014 - 0,9
So, 26.06. 20:00 1013 - 0,2
So, 26.06. 14:00 1014 + 0,2
So, 26.06. 8:00 1014 + 1,0
So, 26.06. 2:00 1014 + 0,2
Sa, 25.06. 20:00 1012 0,0
Ortszeit Luftdruck NN (hPa) Tendenz (hPa in 3 Std.)
Mo, 27.06. 18:30 1013 + 1,3
Mo, 27.06. 18:20 1013 keine Meldung
Mo, 27.06. 18:10 1013 keine Meldung
Mo, 27.06. 18:00 1013 + 1,3
Mo, 27.06. 17:50 1013 keine Meldung
Mo, 27.06. 17:40 1013 keine Meldung
Mo, 27.06. 17:30 1013 + 0,7
Mo, 27.06. 17:00 1012 + 0,2
Mo, 27.06. 16:30 1011 - 0,1
Mo, 27.06. 16:00 1011 - 0,1
Mo, 27.06. 15:30 1011 - 0,4
Ortszeit Schneehöhe (cm)
Mo, 27.06. 14:00 0
Mo, 27.06. 8:00 0
Mo, 27.06. 2:00 0
So, 26.06. 20:00 0
So, 26.06. 14:00 0
So, 26.06. 8:00 0
So, 26.06. 2:00 0
Sa, 25.06. 20:00 0
Ortszeit Schneehöhe (cm)
Mo, 27.06. 18:30 0
Mo, 27.06. 18:20 0
Mo, 27.06. 18:10 0
Mo, 27.06. 18:00 0
Mo, 27.06. 17:50 0
Mo, 27.06. 17:40 0
Mo, 27.06. 17:30 0
Mo, 27.06. 17:00 0
Mo, 27.06. 16:30 0
Mo, 27.06. 16:00 0
Mo, 27.06. 15:30 0
Link zu dieser Seite / Seite empfehlen

Das Wetter in ...